Weather History for Crossville, TN

Change the Weather History Date:

Saturday, August 17, 2013

  Actual Average Record
Temperature  
Mean Temperature 69 °F 74 °F  
Max Temperature 74 °F 84 °F 94 °F (1988)
Min Temperature 63 °F 64 °F 50 °F (1979)
Degree Days  
Heating Degree Days 0    
Month to date heating degree days 0  
Since 1 June heating degree days 0  
Since 1 July heating degree days 0  
Cooling Degree Days 4    
Month to date cooling degree days 123  
Year to date cooling degree days 635  
Since 1 June cooling degree days 555  
Growing Degree Days 18 (Base 50)    
Moisture  
Dew Point 62 °F    
Average Humidity 81    
Maximum Humidity 93    
Minimum Humidity 68    
Precipitation  
Precipitation 0.28 in 0.13 in 2.39 in (1982)
Month to date precipitation 2.53 2.36  
Year to date precipitation 45.79 36.49  
Sea Level Pressure  
Sea Level Pressure 30.14 in    
Wind  
Wind Speed 1 mph (ESE)    
Max Wind Speed 8 mph    
Max Gust Speed 10 mph    
Visibility 7 miles    
Events Rain    
T = Trace of Precipitation, MM = Missing Value Source: NWS Daily Summary

Daily Weather History Graph

Daily Weather History Graph

Search for Another Location

Airport:

Trip Planner

Search our weather history database for the weather conditions in past years. The results will help you decide how hot, cold, wet, or windy it might be!

Date:

Astronomy

Aug. 17, 2013 Rise Set
Actual Time 6:00 AM CDT 7:27 PM CDT
Civil Twilight 5:33 AM CDT 7:54 PM CDT
Nautical Twilight 5:01 AM CDT 8:26 PM CDT
Astronomical Twilight 4:27 AM CDT 9:00 PM CDT
Moon 4:39 PM CDT (8/17) 2:06 AM CDT (8/17)
Length of Visible Light 14h 20m
Length of Day
13h 26m
Waxing Gibbous, 84% of the Moon is Illuminated
Aug 17
Waxing Gibbous
Aug 20
Full
Aug 28
Last Quarter
Sep 5
New
Sep 12
First Quarter

Hourly Weather History & Observations

Time (CDT) Temp. Dew Point Humidity Pressure Visibility Wind Dir Wind Speed Gust Speed Precip Events Conditions
12:53 AM 66.0 °F 62.1 °F 87% 30.10 in 10.0 mi Calm Calm - N/A   Mostly Cloudy
1:51 AM 66.2 °F 62.6 °F 88% 30.14 in 10.0 mi Calm Calm - N/A   Overcast
1:53 AM 66.0 °F 62.1 °F 87% 30.09 in 10.0 mi Calm Calm - N/A   Overcast
2:44 AM 64.4 °F 62.6 °F 94% 30.14 in 9.0 mi Calm Calm - N/A   Mostly Cloudy
2:53 AM 64.0 °F 62.1 °F 93% 30.10 in 8.0 mi Calm Calm - N/A   Overcast
3:53 AM 64.9 °F 62.1 °F 90% 30.09 in 8.0 mi Calm Calm - N/A   Overcast
4:53 AM 64.0 °F 61.0 °F 90% 30.08 in 7.0 mi Calm Calm - N/A   Scattered Clouds
5:53 AM 64.0 °F 61.0 °F 90% 30.09 in 9.0 mi Calm Calm - N/A   Clear
6:53 AM 64.9 °F 62.1 °F 90% 30.11 in 9.0 mi Calm Calm - N/A   Overcast
7:30 AM 66.2 °F 62.6 °F 88% 30.17 in 10.0 mi Calm Calm - N/A   Overcast
7:37 AM 66.2 °F 60.8 °F 83% 30.17 in 10.0 mi Calm Calm - N/A   Overcast
7:45 AM 66.2 °F 60.8 °F 83% 30.17 in 10.0 mi Calm Calm - N/A   Overcast
7:53 AM 66.0 °F 60.1 °F 81% 30.13 in 10.0 mi Calm Calm - N/A   Overcast
8:14 AM 66.2 °F 60.8 °F 83% 30.18 in 10.0 mi Calm Calm - N/A   Overcast
8:53 AM 68.0 °F 59.0 °F 73% 30.13 in 10.0 mi Calm Calm - N/A   Overcast
9:53 AM 69.1 °F 59.0 °F 70% 30.15 in 10.0 mi Calm Calm - N/A   Overcast
10:39 AM 71.6 °F 60.8 °F 69% 30.19 in 10.0 mi East 4.6 mph - N/A   Mostly Cloudy
10:53 AM 70.0 °F 61.0 °F 73% 30.14 in 10.0 mi East 4.6 mph - N/A   Overcast
11:53 AM 71.1 °F 62.1 °F 73% 30.12 in 10.0 mi SE 4.6 mph - N/A   Overcast
12:53 PM 71.1 °F 62.1 °F 73% 30.11 in 10.0 mi Calm Calm - N/A   Overcast
1:25 PM 71.6 °F 62.6 °F 73% 30.16 in 10.0 mi East 3.5 mph - N/A   Overcast
1:53 PM 72.0 °F 62.1 °F 71% 30.10 in 10.0 mi Calm Calm - N/A   Overcast
2:44 PM 73.4 °F 62.6 °F 69% 30.15 in 10.0 mi Calm Calm - N/A   Mostly Cloudy
2:53 PM 73.0 °F 62.1 °F 68% 30.09 in 10.0 mi SSE 4.6 mph - N/A   Overcast
3:53 PM 73.0 °F 63.0 °F 71% 30.09 in 10.0 mi Variable 4.6 mph - N/A   Overcast
4:06 PM 73.4 °F 62.6 °F 69% 30.14 in 10.0 mi SSE 4.6 mph - N/A   Overcast
4:53 PM 73.0 °F 63.0 °F 71% 30.09 in 10.0 mi SE 3.5 mph - N/A   Overcast
5:06 PM 73.4 °F 62.6 °F 69% 30.14 in 10.0 mi SE 3.5 mph - N/A   Overcast
5:53 PM 72.0 °F 63.0 °F 73% 30.09 in 10.0 mi Calm Calm - N/A   Overcast
6:15 PM 71.6 °F 64.4 °F 78% 30.14 in 10.0 mi Calm Calm - N/A   Overcast
6:36 PM 69.8 °F 64.4 °F 83% 30.14 in 7.0 mi Calm Calm - 0.00 in Rain Light Rain
6:47 PM 69.8 °F 64.4 °F 83% 30.14 in 1.8 mi Variable 3.5 mph - 0.03 in Rain Rain
6:53 PM 68.0 °F 64.9 °F 90% 30.10 in 2.0 mi SE 3.5 mph - 0.03 in Rain Light Rain
7:02 PM 68.0 °F 64.4 °F 88% 30.15 in 3.0 mi Calm Calm - 0.01 in Rain Light Rain
7:06 PM 68.0 °F 64.4 °F 88% 30.15 in 2.5 mi Variable 3.5 mph - 0.01 in Rain Light Rain
7:14 PM 68.0 °F 64.4 °F 88% 30.15 in 2.5 mi SE 6.9 mph - 0.02 in Rain Light Rain
7:24 PM 66.2 °F 62.6 °F 88% 30.15 in 3.0 mi East 4.6 mph - 0.04 in Rain Light Rain
7:31 PM 66.2 °F 62.6 °F 88% 30.15 in 3.0 mi East 4.6 mph - 0.04 in Rain Light Rain
7:39 PM 66.2 °F 62.6 °F 88% 30.16 in 4.0 mi Calm Calm - 0.05 in Rain Light Rain
7:53 PM 66.0 °F 63.0 °F 90% 30.12 in 5.0 mi Calm Calm - 0.06 in Rain Light Rain
8:23 PM 66.2 °F 62.6 °F 88% 30.15 in 1.8 mi Calm Calm - 0.12 in Rain Heavy Rain
8:31 PM 66.2 °F 62.6 °F 88% 30.16 in 2.0 mi SE 3.5 mph - 0.16 in Rain Rain
8:41 PM 66.2 °F 62.6 °F 88% 30.16 in 4.0 mi SE 3.5 mph - 0.17 in Rain Light Rain
8:49 PM 64.4 °F 62.6 °F 94% 30.16 in 4.0 mi Variable 3.5 mph - 0.17 in Rain Light Rain
8:53 PM 64.9 °F 63.0 °F 93% 30.12 in 5.0 mi Calm Calm - 0.17 in Rain Light Rain
9:13 PM 64.4 °F 62.6 °F 94% 30.17 in 4.0 mi Calm Calm - 0.01 in   Overcast
9:20 PM 64.4 °F 62.6 °F 94% 30.17 in 4.0 mi SE 4.6 mph - 0.01 in   Overcast
9:38 PM 64.4 °F 62.6 °F 94% 30.17 in 3.0 mi SE 3.5 mph - 0.01 in   Overcast
9:45 PM 64.4 °F 62.6 °F 94% 30.17 in 2.5 mi SE 3.5 mph - 0.02 in Rain Light Rain
9:53 PM 64.9 °F 63.0 °F 93% 30.13 in 3.0 mi SE 4.6 mph - 0.02 in Rain Light Rain
10:17 PM 64.4 °F 62.6 °F 94% 30.17 in 10.0 mi East 3.5 mph - 0.00 in   Overcast
10:53 PM 64.9 °F 62.1 °F 90% 30.13 in 9.0 mi Variable 4.6 mph - 0.00 in   Overcast
11:03 PM 64.4 °F 62.6 °F 94% 30.18 in 9.0 mi ESE 3.5 mph - N/A   Overcast
11:15 PM 64.4 °F 62.6 °F 94% 30.18 in 8.0 mi Variable 3.5 mph - N/A   Overcast
11:32 PM 64.4 °F 62.6 °F 94% 30.18 in 8.0 mi Variable 3.5 mph - N/A   Overcast
11:45 PM 64.4 °F 62.6 °F 94% 30.18 in 6.0 mi Calm Calm - N/A   Overcast
11:53 PM 64.9 °F 62.1 °F 90% 30.13 in 5.0 mi Calm Calm - N/A   Overcast